Weather History for KSPD - December, 2013

Change the Weather History Date:

Sunday, December 22, 2013

  Actual Average Record
Temperature  
Mean Temperature 30 °F -  
Max Temperature 40 °F 45 °F 72 °F (2005)
Min Temperature 20 °F 18 °F -5 °F (1998)
Degree Days  
Heating Degree Days 35 34  
Month to date heating degree days 747 708  
Since 1 July heating degree days 1859 1854  
Cooling Degree Days 0 0  
Month to date cooling degree days 0 0  
Year to date cooling degree days 1358 1028  
Moisture  
Dew Point 16 °F    
Average Humidity 58    
Maximum Humidity 81    
Minimum Humidity 34    
Precipitation  
Precipitation 0.00 in 0.01 in 0.09 in (2007)
Month to date precipitation 0.00 0.39  
Year to date precipitation 14.25 17.43  
Sea Level Pressure  
Sea Level Pressure 30.08 in    
Wind  
Wind Speed 13 mph (West)    
Max Wind Speed 26 mph    
Max Gust Speed 34 mph    
T = Trace of Precipitation, MM = Missing Value Source: NWS Daily Summary

Daily Weather History Graph

Daily Weather History Graph

Search for Another Location

Airport or City:

Trip Planner

Search our weather history database for the weather conditions in past years. The results will help you decide how hot, cold, wet, or windy it might be!

Date:

Astronomy

Dec. 22, 2013 Rise Set
Actual Time 7:01 AM MST 4:37 PM MST
Civil Twilight 6:32 AM MST 5:06 PM MST
Nautical Twilight 5:59 AM MST 5:39 PM MST
Astronomical Twilight 5:27 AM MST 6:10 PM MST
Moon 9:45 PM MST (12/22) 10:04 AM MST (12/22)
Length of Visible Light 10h 34m
Length of Day
9h 35m
Waning Gibbous, 76% of the Moon is Illuminated
Dec 22
Waning Gibbous
Dec 25
Last Quarter
Jan 1
New
Jan 7
First Quarter
Jan 15
Full

Hourly Weather History & Observations

Time (MST) Temp. Windchill Dew Point Humidity Pressure Visibility Wind Dir Wind Speed Gust Speed Precip Events Conditions
12:56 AM 26.1 °F 13.6 °F 18.0 °F 71% 29.88 in - NNW 16.1 mph - N/A   Unknown
1:56 AM 27.0 °F 12.5 °F 18.0 °F 69% 29.91 in - NNW 23.0 mph 28.8 mph N/A   Unknown
2:56 AM 27.0 °F 13.9 °F 18.0 °F 69% 29.94 in - NNW 18.4 mph 28.8 mph N/A   Unknown
3:56 AM 25.0 °F 9.5 °F 16.0 °F 69% 30.00 in - NNW 24.2 mph 31.1 mph N/A   Unknown
4:56 AM 23.0 °F 9.2 °F 16.0 °F 74% 30.03 in - NNW 17.3 mph - N/A   Unknown
5:56 AM 21.9 °F 7.8 °F 16.0 °F 78% 30.09 in - NNW 17.3 mph - N/A   Unknown
6:56 AM 21.9 °F 9.2 °F 16.0 °F 78% 30.12 in - NNW 13.8 mph - N/A   Unknown
7:56 AM 21.9 °F 11.0 °F 16.0 °F 78% 30.15 in - NW 10.4 mph - N/A   Unknown
8:56 AM 30.0 °F 19.1 °F 18.0 °F 61% 30.14 in - NNW 15.0 mph - N/A   Unknown
9:56 AM 33.1 °F 23.4 °F 17.1 °F 52% 30.16 in - NNW 13.8 mph - N/A   Unknown
10:56 AM 36.0 °F 29.0 °F 16.0 °F 44% 30.14 in - NNW 9.2 mph - N/A   Unknown
11:56 AM 37.0 °F 31.6 °F 14.0 °F 39% 30.12 in - WNW 6.9 mph - N/A   Unknown
12:56 PM 39.9 °F 36.7 °F 14.0 °F 35% 30.09 in - Variable 4.6 mph - N/A   Unknown
1:56 PM 39.0 °F 34.8 °F 14.0 °F 36% 30.08 in - South 5.8 mph - N/A   Unknown
2:56 PM 39.0 °F 33.4 °F 15.1 °F 38% 30.08 in - South 8.1 mph - N/A   Unknown
3:56 PM 37.9 °F 30.9 °F 15.1 °F 39% 30.08 in - South 10.4 mph - N/A   Unknown
4:56 PM 30.9 °F 20.7 °F 14.0 °F 50% 30.12 in - South 13.8 mph - N/A   Unknown
5:56 PM 27.0 °F 16.1 °F 17.1 °F 66% 30.12 in - South 12.7 mph - N/A   Unknown
6:56 PM 26.1 °F 14.5 °F 19.0 °F 75% 30.14 in - South 13.8 mph - N/A   Unknown
7:56 PM 23.0 °F 11.7 °F 17.1 °F 78% 30.14 in - SSW 11.5 mph - N/A   Unknown
8:56 PM 24.1 °F 13.1 °F 18.0 °F 77% 30.12 in - SW 11.5 mph - N/A   Unknown
9:56 PM 25.0 °F 13.6 °F 18.0 °F 75% 30.12 in - SW 12.7 mph - N/A   Unknown
10:56 PM 23.0 °F 12.4 °F 17.1 °F 78% 30.12 in - SW 10.4 mph - N/A   Unknown
11:56 PM 23.0 °F 14.7 °F 15.1 °F 72% 30.11 in - West 6.9 mph - N/A   Unknown